{"data":{"norad_id":47638,"epoch":"2026-05-24T23:10:12.302688Z","epoch_age_seconds":77962,"freshness":"FRESH","line1":"1 47638U 21012U   26144.96542017  .00035736  00000+0  10893-2 0  9991","line2":"2 47638  53.1590 337.5756 0001933 227.4131 132.6708 15.33647180293048","mean_motion":15.3364718,"eccentricity":0.0001933,"inclination_deg":53.159,"raan_deg":337.5756,"arg_perigee_deg":227.4131,"mean_anomaly_deg":132.6708,"bstar":0.0010893,"rev_number":29304,"period_min":93.89382504521,"perigee_km":463.61892801761,"apogee_km":466.26446224115,"semimajor_km":6843.0786951294,"source":"CELESTRAK","updated_at":"2026-05-25T13:38:16.561029Z"}}